Reflectivity
26 6 -20 -20 -20 -9 -20 8 -20 -20 -20 -20 -20 -20 14 -11 -20 -20 -20 -20 -20 -20 -20 -20 -20 -20 -20 -20 -20 -20 -20 -20 -20 -20 -20 -20 -20 -20 1 -20 18 -20 -20 -20
13 -9 -20 -20 -20 -20 -20 -20 -20 -20 -20 -20 -20 -20 0 -7 -20 -20 -20 -20 -20 -20 -20 -20 -20 -20 -20 -20 -20 -20 -20 -20 -20 -20 -20 -20 -20 -20 -20 -20 -20 -20 -20 -20
12 -17 -20 -12 -20 1 -3 -20 -20 -20 -20 -20 -20 -20 -18 -20 -20 -20 -20 -20 -20 -20 -20 -20 -20 -20 -20 -20 -20 -20 -20 -20 -20 -20 -20 -20 -20 -20 -20 -20 -20 -20 -20 -20
33 -18 -20 -20 -8 -20 -20 -20 -19 -20 -20 -20 -20 -20 -20 -20 -20 -20 -20 -20 -20 -20 -20 -20 -20 -20 -19 -20 -20 -20 -20 -20 -20 -20 -20 -20 -20 -20 -20 -20 -20 -20 -20 -20
-8 5 -20 -20 -20 -20 -20 -7 -18 -20 -20 -20 -20 -20 -20 -20 -20 -20 -20 -20 -20 -20 -20 -20 -20 -20 -20 -20 -20 -20 -20 -20 -20 -20 -20 -20 -20 -20 -20 -20 -20 -20 7 12
-19 -5 -20 -20 -20 -20 6 -20 -20 -13 5 -15 -20 -20 -20 -20 -20 -20 -20 -20 -20 -20 -20 -20 -20 -20 -20 -20 -20 -20 -20 -20 -20 -20 -20 -20 -20 -20 -20 -20 -20 -20 -20 -20
-18 -11 -20 -20 -20 -20 -4 32 6 -9 -20 -20 -20 -20 -20 -20 -20 -20 -20 -20 -20 -20 -20 -20 -20 -20 -20 -20 -20 -20 -20 -20 -20 -20 -20 -20 -20 -20 -20 -20 -20 -20 -20 -20
-20 -16 -10 -20 -20 14 37 -2 -20 -20 -20 -20 -20 -20 -20 -20 -20 -20 -20 -20 -20 -20 -20 -20 -20 -20 -20 -20 -20 -20 -20 -20 -20 -20 -20 -20 -20 -20 -20 -20 -20 -20 -20 -20
-20 -9 -20 -12 -20 13 40 11 -20 -20 -20 -20 -20 -20 -20 -20 -20 -20 -20 -20 -20 -20 -20 -20 -20 -20 -20 -20 -20 -20 -20 -20 -20 -20 -20 -20 -20 -20 -20 -20 -20 -20 -20 -20
-20 -14 14 -1 -10 -17 30 13 5 -10 -20 -20 -20 -20 -20 -20 -20 -9 -7 -20 -20 -20 -20 -20 -20 -20 -20 -20 -20 -20 -20 -20 -20 -20 -20 -20 -20 -20 -20 -20 -20 -20 -20 -20
-20 -20 16 13 16 -17 27 29 -4 -19 -20 -20 -20 -20 -20 -20 -20 -18 -20 -20 -20 -20 -20 -20 -20 -20 -20 -20 -20 -20 -20 -20 -20 -20 -20 -20 -20 -20 -20 -20 -20 -20 -20 -20
-20 -20 -18 -20 -12 -1 -9 2 -20 -20 -20 -20 -20 -20 -20 -20 -20 -20 -20 -20 -20 -20 -20 -20 -20 -20 -20 -20 -20 -20 -20 -20 -20 -20 -20 -20 -20 -20 -20 -20 -20 -20 -20 -20
-20 -20 -20 -20 -20 -20 -4 -19 -3 7 -20 -20 -20 -20 -20 -20 -20 -20 -20 -20 -20 -20 -20 -20 -20 -20 -20 -20 -20 -20 -20 -20 -20 -20 -20 -20 -20 -20 -20 -20 -20 -20 -20 -20
-20 -20 -20 -20 -20 -20 -20 -20 -20 -8 4 -12 -11 -20 -20 -20 -20 -20 -20 -20 -20 -20 -20 -20 -20 -20 -20 -20 -20 -20 -20 -20 -20 -20 -20 -20 -20 -20 -20 -20 -20 -20 -20 -20
-20 -20 -20 -20 -20 -20 -20 -20 -20 -20 -20 -20 -20 -20 -20 -20 -20 -20 -20 -20 -20 -20 -20 -20 -20 -20 -20 -20 -20 -20 -20 -20 -20 -20 -20 -20 -20 -20 -20 -20 -20 -20 -20 -20
-20 -20 -20 -20 -20 -20 -20 -20 -20 -20 -20 -20 -20 -20 -20 -20 -13 -20 -20 -20 -20 -20 -20 -20 -20 -20 -20 -20 -20 -20 -20 -20 -20 -20 -20 -20 -20 -20 -20 -20 -20 -20 -20 -20
-20 -20 -20 -20 -20 -20 -20 -20 -20 -20 -20 -20 -20 -20 -20 -20 -20 -20 -20 -20 -20 -20 -20 -20 -20 -20 -20 -20 -20 -20 -20 -20 -20 -20 -20 -20 -20 -20 -20 -20 -20 -20 -20 -13
-20 -20 -20 -20 -20 -20 -20 -20 -20 -20 -20 -20 -20 -20 -20 -20 -20 -20 -20 -20 -20 -20 -20 -20 -20 -20 -20 -20 -20 -20 -20 -20 -20 -20 -20 -20 -20 -20 -20 -20 -20 -18 -8 -20
-20 -20 -20 -20 -20 -20 -20 -20 -20 -20 -20 -20 -20 -20 -20 -20 -20 -20 -20 -20 -20 -20 -20 -20 -20 -20 -20 -20 -20 -20 -20 -20 -20 -20 -20 -20 -20 -20 -20 -20 -20 -20 -19 -20
-20 -20 -20 -20 -20 -20 -20 -20 -20 -20 -20 -20 -20 -20 -20 -20 -20 -20 -20 -20 -20 -20 -20 -20 -20 -20 -20 -20 -20 -20 -20 -20 -20 -20 -17 -20 -20 -20 -20 -20 -20 -20 -20 -20
-20 -20 -5 -19 -20 -20 -20 -20 -20 -20 -20 -20 -20 -20 -20 -20 -20 -20 -20 -20 -20 -20 -20 -20 -20 -20 -20 -20 -20 -20 -20 -20 -17 -20 -20 -20 -20 -20 -20 -20 -20 -20 -20 -20
-20 -20 -20 -19 4 -20 -20 -20 -20 -20 -20 -20 -20 -20 -20 -20 -20 -20 -20 -20 -20 -20 -20 -20 -20 -20 -20 -20 -20 -20 -20 -20 -20 -20 -20 -20 -20 -20 -20 -20 -20 -20 -20 -20
-20 -20 -20 -20 -20 -20 -20 -20 -20 -20 -20 -20 -20 -20 -20 -20 -20 -20 -20 -20 -20 -20 -20 -20 -20 -20 -20 -20 -20 -20 -20 -20 -20 -20 -20 -20 -20 -20 -20 -20 -20 -20 -20 -20
-20 -20 -20 -20 -20 -20 -20 -20 -20 -20 -20 -20 -20 -20 -20 -20 -20 -20 -20 -20 -20 -20 -20 -20 -20 -20 -20 -20 -20 -20 -20 -20 -20 -20 -20 -20 -20 -20 -20 -20 -20 -20 -20 -20
-20 -20 -20 -20 -20 -20 -20 -20 -20 -20 -20 -20 -20 -20 -20 -20 -20 0 -20 -20 -20 -20 -20 -20 -20 -20 -20 -20 -20 -18 -20 -20 -20 -20 -20 -20 -20 -20 -20 -20 -20 -20 -20 -20
-20 -20 -20 -20 -20 -20 -20 -20 -20 -20 -20 -20 -20 -20 -20 -20 -20 -20 -20 -20 -20 -20 -20 -20 -20 -20 -20 -20 -20 -20 -20 -20 -20 -20 -20 -20 -20 -20 -20 -20 -20 -20 -20 -20
Wind_Speed
7 6 15 14 10 2 9 8 5 7 7 7 13 8 9 7 3 8 7 7 6 6 1 6 6 5 6 7 8 7 7 3 3 1 4 2 5 4 4 4 6 4 3 5
7 10 6 8 10 9 4 3 8 4 7 14 10 14 9 12 7 8 9 8 5 2 5 5 6 8 8 5 6 7 6 6 4 1 1 2 4 4 5 4 5 5 5 6
4 5 11 10 9 9 4 7 4 5 2 3 3 9 14 13 6 6 5 5 4 7 7 6 7 7 7 7 6 6 5 4 3 3 3 3 2 2 1 2 3 6 7 7
3 1 9 7 8 5 4 6 10 12 6 4 5 5 9 15 9 7 7 6 7 7 6 6 6 6 6 4 5 6 6 4 4 4 3 2 1 1 2 2 3 5 7 8
2 5 6 5 4 3 6 6 7 3 6 4 2 1 8 9 9 8 8 7 7 6 8 7 6 6 5 4 3 4 6 5 5 5 4 2 1 2 2 2 5 5 5 7
4 3 5 2 4 3 8 4 8 5 3 2 6 6 6 7 19 6 4 8 8 8 7 7 6 6 4 4 5 6 6 5 7 7 7 7 5 4 4 4 4 4 3 3
5 4 3 2 4 5 4 6 2 1 0 6 3 7 11 5 4 8 12 9 8 8 8 7 6 6 5 6 6 5 7 6 6 7 8 8 7 7 7 5 4 6 4 4
4 2 2 0 1 4 9 3 6 7 5 4 2 9 8 7 9 12 11 10 8 8 7 7 6 6 6 5 6 6 6 6 6 7 6 5 6 4 4 5 4 4 4 3
5 3 1 4 2 7 6 6 4 4 2 3 5 5 6 5 8 11 12 9 9 8 7 7 7 6 5 5 5 5 6 6 6 6 5 6 6 6 5 6 5 4 4 4
4 5 2 3 1 2 3 4 2 3 2 5 4 4 5 7 10 10 9 8 7 7 7 7 6 5 4 4 4 6 6 6 6 7 6 6 7 7 6 7 7 7 7 8
6 3 4 3 4 6 5 3 3 0 4 4 2 7 6 14 14 12 9 8 8 8 7 7 6 5 6 5 5 6 6 6 6 6 6 7 7 7 7 6 6 6 6 7
2 5 3 3 8 8 4 4 3 4 4 1 4 7 4 8 9 8 7 8 7 8 7 7 7 6 6 5 5 5 5 6 6 5 6 7 7 7 7 6 6 6 7 6
3 2 4 2 5 3 5 7 7 1 2 4 5 6 1 7 8 7 9 7 7 7 7 6 6 6 6 5 5 5 5 5 5 6 6 6 7 7 6 6 6 6 6 6
2 3 5 7 4 5 5 6 6 5 3 3 6 3 3 7 9 7 7 8 8 8 7 6 6 6 6 5 6 5 5 5 5 6 6 6 6 5 5 6 6 7 6 6
3 3 2 1 3 3 4 5 8 7 6 7 4 6 11 12 10 9 9 6 8 7 7 7 6 6 6 6 5 5 5 5 5 6 6 5 5 6 6 7 7 8 8 9
2 3 3 4 3 3 4 7 8 8 6 6 3 6 6 4 3 6 9 9 8 7 7 7 7 7 6 6 5 5 6 5 6 5 5 4 7 7 7 7 8 8 8 7
4 5 3 4 3 1 7 14 15 6 6 12 9 10 0 4 7 7 8 8 8 7 7 7 7 7 6 6 6 6 5 5 5 5 5 7 7 7 7 7 7 6 6 6
6 6 3 3 2 1 7 4 8 18 10 8 5 7 5 7 6 7 6 8 7 7 7 7 6 6 6 6 7 7 5 6 4 5 5 6 7 7 6 6 6 5 5 7
4 4 2 4 3 7 2 4 6 8 10 11 11 7 6 4 4 3 5 4 7 7 6 6 6 5 6 7 7 7 6 6 5 5 5 6 6 6 5 5 5 3 6 6
3 3 5 2 2 5 3 2 1 3 3 2 12 11 6 7 4 5 7 6 6 7 8 8 7 6 7 5 6 8 6 6 6 6 6 6 6 5 5 5 5 3 2 5
2 2 5 4 3 7 5 3 3 3 4 2 7 6 6 5 4 4 8 5 6 6 8 7 7 6 6 6 7 7 7 5 6 5 5 6 6 5 6 7 2 2 3 5
7 6 4 4 4 8 5 3 4 3 2 4 4 4 5 5 6 7 6 8 9 8 8 7 7 6 6 6 7 7 6 6 6 6 5 5 5 5 4 5 3 3 4 4
3 7 6 8 6 5 5 4 3 3 4 3 4 4 6 6 5 7 7 9 9 9 7 6 8 7 5 6 7 8 7 7 7 6 6 5 5 5 5 4 3 2 3 3
4 5 3 2 4 7 7 4 5 4 3 3 3 3 6 5 7 7 6 7 7 8 7 6 8 7 7 7 8 7 8 8 8 6 6 5 5 5 4 3 2 3 2 3
6 5 6 4 5 4 4 6 8 6 6 4 3 4 5 6 7 7 7 8 8 8 7 9 9 8 8 8 8 8 8 6 6 6 6 6 5 5 4 3 3 3 2 3
4 6 5 5 5 4 2 1 6 7 5 4 2 2 2 3 5 6 6 7 8 8 9 9 9 9 9 9 9 10 11 7 6 6 5 5 4 4 4 4 2 4 5 4
Wind_Direction
181 167 195 187 162 128 139 194 178 222 212 179 220 242 247 270 193 184 216 237 252 240 250 74 86 76 49 43 21 357 342 344 162 179 164 179 216 235 253 238 237 214 248 280
163 206 178 154 148 215 148 150 222 289 226 190 209 226 206 242 219 196 213 235 259 45 103 85 70 57 55 54 26 13 8 9 9 4 227 174 172 213 221 221 235 230 217 248
100 158 162 164 182 201 211 186 215 187 71 60 126 251 237 245 220 214 179 178 160 139 124 99 83 83 64 42 15 3 345 338 344 2 349 16 61 44 128 203 227 229 223 224
132 103 145 128 182 155 216 213 245 152 114 180 154 260 231 211 210 196 184 192 172 138 125 112 104 84 73 45 13 1 353 357 12 18 41 41 145 280 261 250 252 239 221 229
47 122 126 88 127 34 224 309 166 103 131 124 223 149 255 197 210 201 196 184 165 154 136 119 109 111 95 71 20 359 11 13 16 22 36 53 336 216 275 305 315 265 253 224
60 24 45 43 71 21 351 17 52 57 78 303 214 159 265 205 206 173 151 154 148 127 129 128 109 117 104 56 33 24 21 23 27 37 27 30 21 348 360 343 343 344 324 299
25 15 343 44 77 351 28 235 92 50 43 223 205 191 249 272 202 161 158 159 151 138 123 118 107 90 80 59 37 26 22 22 24 37 34 38 40 45 45 20 7 13 7 8
144 306 189 75 197 163 231 236 153 180 194 229 17 222 248 267 170 141 143 150 152 136 132 125 110 98 85 69 49 36 30 33 29 35 35 43 44 48 46 39 34 34 29 25
133 109 141 243 150 133 185 214 182 110 358 73 215 288 318 25 115 132 143 142 142 144 135 122 106 97 83 65 49 50 47 43 33 28 32 39 36 39 42 34 33 29 14 14
153 122 163 140 234 63 300 333 93 4 178 239 255 231 230 172 161 153 153 152 156 140 128 122 119 110 91 78 58 49 56 58 39 43 44 48 41 43 39 42 32 27 19 17
151 124 133 154 205 162 179 167 238 127 166 190 193 256 200 188 179 164 166 164 161 150 146 139 134 127 116 93 77 65 53 48 39 52 50 49 40 37 38 40 29 26 26 19
140 119 153 187 162 177 189 202 206 139 214 219 152 270 312 156 159 148 159 149 149 147 148 146 146 135 118 105 88 78 62 58 54 57 56 51 43 37 37 32 27 24 30 24
171 101 99 20 0 236 206 191 176 190 103 222 141 262 57 113 129 152 151 154 158 152 152 157 146 143 133 122 109 96 75 67 68 69 67 53 46 37 32 31 36 41 32 30
122 151 164 188 203 143 186 193 169 148 133 227 224 167 181 153 157 175 181 184 173 165 163 159 154 153 147 136 127 112 88 77 73 72 71 65 54 54 49 42 41 49 36 38
112 155 153 159 132 144 199 200 181 181 191 161 235 195 201 189 189 194 188 168 157 159 158 160 155 155 146 131 115 111 90 82 88 86 84 83 66 56 55 53 54 49 43 45
49 181 90 307 223 232 246 231 221 213 210 247 244 290 215 198 181 151 162 166 173 179 168 158 149 153 149 147 139 109 88 79 82 85 89 85 79 69 65 60 58 53 53 54
131 126 90 265 177 285 303 227 210 201 196 205 207 219 48 148 158 166 182 180 183 184 173 170 170 156 146 151 134 115 105 92 90 94 92 86 83 75 72 68 68 64 67 79
141 135 125 215 71 310 243 155 195 211 198 194 196 217 211 200 179 163 170 177 188 169 164 162 147 141 150 128 118 119 117 104 106 95 88 96 100 97 84 77 72 71 82 86
145 145 186 152 203 273 287 227 168 170 236 205 204 214 185 127 109 220 172 141 165 161 159 150 147 145 134 135 138 125 125 119 113 110 117 116 117 118 109 104 100 93 106 96
99 76 133 165 179 237 251 203 202 122 268 217 186 207 213 159 188 242 155 124 109 113 124 131 130 120 126 120 134 124 121 128 132 135 126 123 121 120 120 127 131 139 103 116
159 159 181 232 245 281 244 162 100 135 229 16 154 171 168 188 194 136 130 119 130 137 147 138 135 145 139 123 123 125 133 142 137 135 125 126 137 141 148 151 167 167 111 108
172 183 180 184 221 268 158 106 186 184 115 112 104 137 126 136 130 142 140 145 147 147 139 143 138 139 140 140 131 136 151 147 138 131 131 132 150 163 173 168 187 189 146 121
187 186 182 177 211 229 201 191 170 151 142 156 139 139 132 141 175 166 165 160 162 160 156 150 141 140 144 141 149 155 159 156 147 149 160 177 179 180 175 168 168 144 148 146
231 172 206 108 246 204 186 196 164 163 152 152 151 151 143 169 175 180 165 167 167 166 163 139 142 155 168 169 164 168 167 168 160 171 177 179 168 170 155 120 103 116 126 133
197 139 188 248 278 303 227 199 173 148 132 132 167 183 186 166 184 178 175 176 175 165 157 161 166 173 182 169 171 172 179 169 177 178 179 177 180 157 130 115 155 139 190 164
186 187 163 219 231 192 220 266 145 144 148 145 181 202 220 203 198 176 183 174 169 171 171 173 176 174 180 175 176 177 193 183 182 179 178 184 169 164 158 151 91 136 152 138